GW4915 Weather Reports


time (UTC)temp
C
wind
direction
speed
KPH
gust
KPH
rain 1hr
cm
rain 24hr
cm
rain mn
cm
humidity
%
barometer
mb
20260502152022 7 284 4.8 4.8 0.00 0.00 0.00 49 1017.2
20260502151519 7 317 6.4 8.0 0.00 0.00 0.00 48 1017.5
20260502151016 6 313 4.8 4.8 0.00 0.00 0.00 49 1017.4
20260502150514 7 36 6.4 8.0 0.00 0.00 0.00 52 1017.5
20260502130358 5 343 1.6 1.6 0.00 0.00 0.00 74 1017.8
20260502123341 4 329 8.0 8.0 0.00 0.00 0.00 74 1017.7
20260502122838 5 329 3.2 3.2 0.00 0.00 0.00 76 1018.0
20260502122333 4 294 3.2 3.2 0.00 0.00 0.00 76 1018.1
20260502121833 4 258 1.6 3.2 0.00 0.00 0.00 77 1017.8
20260502121329 4 276 1.6 1.6 0.00 0.00 0.00 77 1017.8
20260502120827 3 304 1.6 1.6 0.00 0.00 0.00 78 1017.8
20260502120323 3 275 1.6 1.6 0.00 0.00 0.00 79 1018.1
20260502115820 3 310 3.2 3.2 0.00 0.00 0.00 81 1017.8
20260502115317 3 299 3.2 3.2 0.00 0.00 0.00 82 1018.2
20260502114814 2 298 3.2 3.2 0.00 0.00 0.00 83 1018.0
20260502114310 2 288 0.0 0.0 0.00 0.00 0.00 84 1018.0
20260502113808 2 276 0.0 1.6 0.00 0.00 0.00 85 1017.8
20260502113305 2 285 0.0 0.0 0.00 0.00 0.00 86 1017.7
20260502112803 2 286 0.0 0.0 0.00 0.00 0.00 86 1017.7
20260502112300 1 286 0.0 0.0 0.00 0.00 0.00 86 1017.7
20260502111757 1 286 0.0 0.0 0.00 0.00 0.00 86 1017.4
20260502111255 1 286 0.0 0.0 0.00 0.00 0.00 86 1017.5
20260502110752 1 286 0.0 0.0 0.00 0.00 0.00 85 1017.5
20260502110250 1 286 0.0 0.0 0.00 0.00 0.00 85 1017.3
20260502105748 2 287 0.0 0.0 0.00 0.00 0.00 85 1017.4
20260502105244 2 287 0.0 0.0 0.00 0.00 0.00 85 1017.3
20260502104742 2 287 0.0 0.0 0.00 0.00 0.00 84 1017.4
20260502104239 2 287 0.0 0.0 0.00 0.00 0.00 84 1017.2
20260502103737 2 287 0.0 0.0 0.00 0.00 0.00 84 1017.3
20260502103234 2 287 0.0 0.0 0.00 0.00 0.00 83 1017.4
20260502102731 2 287 0.0 0.0 0.00 0.00 0.00 83 1017.2
20260502102227 2 289 0.0 0.0 0.00 0.00 0.00 83 1017.3
20260502101726 2 290 0.0 0.0 0.00 0.00 0.00 83 1017.4
20260502101224 2 290 0.0 0.0 0.00 0.00 0.00 83 1017.3
20260502100721 2 290 0.0 0.0 0.00 0.00 0.00 83 1017.3
20260502100220 2 290 0.0 0.0 0.00 0.00 0.00 83 1017.4
20260502091153 2 292 0.0 0.0 0.00 0.00 0.00 81 1017.2
20260502090651 2 293 0.0 0.0 0.00 0.00 0.00 81 1017.2
20260502090148 2 295 0.0 0.0 0.00 0.00 0.00 80 1016.9
20260502071049 3 297 0.0 1.6 0.00 0.00 0.00 79 1016.8
20260502070547 3 328 1.6 1.6 0.00 0.00 0.00 79 1016.7
20260502070045 3 314 1.6 1.6 0.00 0.00 0.00 79 1016.8
20260502065543 3 296 0.0 1.6 0.00 0.00 0.00 79 1016.9
20260502065040 3 301 0.0 0.0 0.00 0.00 0.00 78 1017.0
20260502064539 3 307 1.6 1.6 0.00 0.00 0.00 79 1017.0
20260502064035 3 294 0.0 0.0 0.00 0.00 0.00 78 1016.8
20260502063533 3 292 0.0 1.6 0.00 0.00 0.00 78 1017.0
20260502063031 3 287 0.0 0.0 0.00 0.00 0.00 78 1016.9
20260502062528 3 286 0.0 1.6 0.00 0.00 0.00 78 1017.0
20260502062026 3 301 0.0 1.6 0.00 0.00 0.00 78 1017.0
20260502061524 3 292 0.0 0.0 0.00 0.00 0.00 78 1017.1
20260502061021 3 295 0.0 0.0 0.00 0.00 0.00 78 1017.0
20260502060516 3 295 0.0 0.0 0.00 0.00 0.00 78 1017.1
20260502060013 3 297 0.0 0.0 0.00 0.00 0.00 77 1017.2
20260502055510 3 292 0.0 0.0 0.00 0.00 0.00 77 1017.3
20260502055009 3 298 0.0 1.6 0.00 0.00 0.00 77 1017.3
20260502054507 3 295 0.0 0.0 0.00 0.00 0.00 77 1017.2
20260502054004 3 301 0.0 1.6 0.00 0.00 0.00 76 1017.2
20260502053501 3 168 1.6 3.2 0.00 0.00 0.00 76 1017.2
20260502052959 3 267 0.0 0.0 0.00 0.00 0.00 76 1017.2
20260502052456 3 198 3.2 3.2 0.00 0.00 0.00 76 1017.1
20260502051955 3 250 1.6 1.6 0.00 0.00 0.00 76 1017.3
20260502051453 3 254 0.0 1.6 0.00 0.00 0.00 75 1017.2
20260502050949 3 154 1.6 3.2 0.00 0.00 0.00 75 1017.0
20260502050446 3 261 0.0 1.6 0.00 0.00 0.00 76 1017.1
20260502045943 3 207 1.6 1.6 0.00 0.00 0.00 77 1017.1
20260502045439 3 72 1.6 3.2 0.00 0.00 0.00 77 1017.2
20260502044937 3 260 0.0 1.6 0.00 0.00 0.00 77 1017.2
20260502044432 3 231 1.6 1.6 0.00 0.00 0.00 76 1017.2
20260502043930 3 91 3.2 3.2 0.00 0.00 0.00 75 1017.2
20260502043427 3 5 0.0 1.6 0.00 0.00 0.00 75 1017.0
20260502042927 3 22 1.6 3.2 0.00 0.00 0.00 75 1016.9
20260502042424 3 356 4.8 4.8 0.00 0.00 0.00 76 1017.0
20260502041921 3 322 3.2 3.2 0.00 0.00 0.00 76 1016.8
20260502041419 3 337 1.6 1.6 0.00 0.00 0.00 76 1016.8
20260502040916 4 58 4.8 4.8 0.00 0.00 0.00 76 1016.8
20260502040412 4 100 3.2 3.2 0.00 0.00 0.00 76 1016.5
20260502035909 4 85 4.8 9.7 0.00 0.00 0.00 75 1016.4
20260502035405 4 325 1.6 1.6 0.00 0.00 0.00 75 1016.6
20260502034903 4 304 1.6 4.8 0.00 0.00 0.00 75 1016.6
20260502034402 4 30 3.2 3.2 0.00 0.00 0.00 75 1016.6
20260502033900 4 333 1.6 3.2 0.00 0.00 0.00 74 1016.6
20260502033356 5 44 4.8 8.0 0.00 0.00 0.00 74 1016.4
20260502032853 5 10 1.6 3.2 0.00 0.00 0.00 74 1016.3
20260502032349 5 333 3.2 3.2 0.00 0.00 0.00 74 1016.1
20260502031847 5 54 4.8 8.0 0.00 0.00 0.00 75 1016.2
20260502031345 5 28 9.7 12.9 0.00 0.00 0.00 75 1016.2
20260502030843 5 306 0.0 1.6 0.00 0.00 0.00 75 1016.1
20260502030341 5 91 6.4 9.7 0.00 0.00 0.00 74 1015.9
20260502025838 5 40 3.2 3.2 0.00 0.00 0.00 74 1016.2
20260502025336 6 113 6.4 8.0 0.00 0.00 0.00 73 1015.9
20260502024833 6 60 3.2 4.8 0.00 0.00 0.00 69 1015.9
20260502024331 7 278 1.6 1.6 0.00 0.00 0.00 62 1015.7
20260502023829 7 277 1.6 3.2 0.00 0.00 0.00 61 1016.0
20260502023326 7 278 3.2 3.2 0.00 0.00 0.00 61 1015.8
20260502022824 7 273 4.8 4.8 0.00 0.00 0.00 61 1015.8
20260502022320 7 314 3.2 3.2 0.00 0.00 0.00 60 1015.8
20260502021817 7 301 4.8 8.0 0.00 0.00 0.00 60 1015.6
20260502021314 7 339 4.8 4.8 0.00 0.00 0.00 60 1015.4
20260502020811 7 290 4.8 8.0 0.00 0.00 0.00 60 1015.5
20260502020309 7 313 4.8 4.8 0.00 0.00 0.00 61 1015.4
20260502015806 7 303 4.8 8.0 0.00 0.00 0.00 59 1015.6
20260502015305 7 301 3.2 3.2 0.00 0.00 0.00 60 1015.4
20260502014800 7 317 3.2 3.2 0.00 0.00 0.00 59 1015.5
20260502014257 7 316 3.2 3.2 0.00 0.00 0.00 62 1015.4
20260502013753 7 305 4.8 4.8 0.00 0.00 0.00 61 1015.4
20260502013249 7 295 4.8 4.8 0.00 0.00 0.00 63 1015.3
20260502012745 7 301 1.6 1.6 0.00 0.00 0.00 62 1015.3
20260502012243 7 305 0.0 0.0 0.00 0.00 0.00 62 1015.2
20260502011741 7 301 1.6 1.6 0.00 0.00 0.00 62 1015.2
20260502011236 7 294 0.0 1.6 0.00 0.00 0.00 62 1015.3
20260502010734 7 304 3.2 3.2 0.00 0.00 0.00 61 1015.0
20260502010230 7 293 1.6 3.2 0.00 0.00 0.00 62 1015.1
20260502005727 7 315 1.6 3.2 0.00 0.00 0.00 61 1015.1
20260502005225 7 320 1.6 1.6 0.00 0.00 0.00 62 1015.2
20260502004721 7 299 1.6 1.6 0.00 0.00 0.00 61 1014.9
20260502004218 7 292 1.6 1.6 0.00 0.00 0.00 62 1015.1
20260502003716 7 345 1.6 1.6 0.00 0.00 0.00 62 1015.0
20260502003213 7 307 3.2 4.8 0.00 0.00 0.00 62 1014.9
20260502002708 7 307 4.8 4.8 0.00 0.00 0.00 62 1014.9
20260502002207 7 310 1.6 3.2 0.00 0.00 0.00 62 1014.8
20260502001703 7 302 3.2 3.2 0.00 0.00 0.00 63 1015.0
20260502001201 7 301 1.6 3.2 0.00 0.00 0.00 62 1014.8
20260502000659 7 341 4.8 8.0 0.00 0.00 0.00 62 1014.6
20260502000156 7 286 1.6 1.6 0.00 0.00 0.00 62 1014.6
20260501235652 7 307 3.2 3.2 0.00 0.00 0.00 63 1014.7
20260501235148 7 298 1.6 1.6 0.00 0.00 0.00 64 1014.5
20260501234644 7 292 1.6 1.6 0.00 0.00 0.00 64 1014.7
20260501234141 7 303 1.6 1.6 0.00 0.00 0.00 64 1014.4
20260501233639 7 350 1.6 3.2 0.00 0.00 0.00 65 1014.4
20260501233136 7 321 3.2 3.2 0.00 0.00 0.00 64 1014.5
20260501232632 7 329 4.8 4.8 0.00 0.00 0.00 64 1014.3
20260501232130 7 334 6.4 9.7 0.00 0.00 0.00 63 1014.4
20260501231627 8 334 8.0 9.7 0.00 0.00 0.00 61 1014.5
20260501231125 7 287 6.4 9.7 0.00 0.00 0.00 61 1014.6
20260501230624 8 289 4.8 8.0 0.00 0.00 0.00 61 1014.5
20260501230121 8 327 9.7 11.3 0.00 0.00 0.00 60 1014.3
20260501225619 8 299 3.2 3.2 0.00 0.00 0.00 60 1014.2
20260501225115 8 301 6.4 9.7 0.00 0.00 0.00 60 1014.2
20260501224612 8 325 4.8 8.0 0.00 0.00 0.00 60 1014.3
20260501224109 8 337 8.0 9.7 0.00 0.00 0.00 58 1014.3
20260501223606 8 286 6.4 9.7 0.00 0.00 0.00 55 1014.1
20260501223102 8 300 9.7 12.9 0.00 0.00 0.00 56 1014.1
20260501222558 8 319 11.3 12.9 0.00 0.00 0.00 55 1014.0
20260501222055 9 344 4.8 8.0 0.00 0.00 0.00 54 1013.9
20260501221552 9 323 4.8 8.0 0.00 0.00 0.00 53 1013.7
20260501221049 9 333 6.4 8.0 0.00 0.00 0.00 52 1014.0
20260501220547 9 315 4.8 4.8 0.00 0.00 0.00 53 1013.8
20260501220044 9 302 1.6 3.2 0.00 0.00 0.00 53 1013.7
20260501215540 9 310 3.2 4.8 0.00 0.00 0.00 54 1013.6
20260501215035 9 280 4.8 4.8 0.00 0.00 0.00 53 1013.7
20260501214531 9 325 6.4 8.0 0.00 0.00 0.00 53 1013.6
20260501214027 9 328 4.8 4.8 0.00 0.00 0.00 53 1013.6
20260501213524 9 301 4.8 4.8 0.00 0.00 0.00 54 1013.7
20260501213020 9 323 3.2 4.8 0.00 0.00 0.00 54 1013.9
20260501212516 9 322 6.4 8.0 0.00 0.00 0.00 56 1013.6
20260501212014 9 308 4.8 8.0 0.00 0.00 0.00 55 1013.6
20260501211510 10 30 4.8 8.0 0.00 0.00 0.00 54 1013.6
20260501211008 9 359 4.8 8.0 0.00 0.00 0.00 53 1013.4
20260501210504 10 3 4.8 4.8 0.00 0.00 0.00 53 1013.3
20260501210001 10 325 6.4 8.0 0.00 0.00 0.00 53 1013.3
20260501205458 9 335 8.0 9.7 0.00 0.00 0.00 52 1013.3
20260501204955 9 327 6.4 9.7 0.00 0.00 0.00 51 1013.4
20260501204451 9 305 4.8 4.8 0.00 0.00 0.00 52 1013.4
20260501203947 9 299 6.4 8.0 0.00 0.00 0.00 52 1013.5
20260501203444 9 321 8.0 8.0 0.00 0.00 0.00 53 1013.2
20260501202942 10 321 4.8 4.8 0.00 0.00 0.00 52 1013.3
20260501202438 10 323 8.0 11.3 0.00 0.00 0.00 53 1013.2
20260501201934 10 284 4.8 4.8 0.00 0.00 0.00 52 1012.9
20260501201432 10 341 8.0 12.9 0.00 0.00 0.00 51 1013.0
20260501200929 10 278 6.4 8.0 0.00 0.00 0.00 50 1013.3
20260501200426 10 268 3.2 4.8 0.00 0.00 0.00 51 1013.0
20260501195923 10 300 8.0 11.3 0.00 0.00 0.00 50 1013.0
20260501195420 10 322 4.8 4.8 0.00 0.00 0.00 51 1013.0
20260501194915 10 266 3.2 4.8 0.00 0.00 0.00 51 1013.3
20260501194412 10 330 4.8 4.8 0.00 0.00 0.00 53 1013.2
20260501193908 10 320 4.8 4.8 0.00 0.00 0.00 52 1013.3
20260501193406 10 320 6.4 8.0 0.00 0.00 0.00 52 1012.9
20260501192903 10 320 4.8 8.0 0.00 0.00 0.00 52 1013.0
20260501192400 10 349 3.2 3.2 0.00 0.00 0.00 53 1012.9
20260501191857 10 328 8.0 9.7 0.00 0.00 0.00 52 1012.8
20260501191355 10 0 6.4 8.0 0.00 0.00 0.00 52 1012.9
20260501190852 10 322 4.8 8.0 0.00 0.00 0.00 52 1013.0
20260501190347 10 328 6.4 8.0 0.00 0.00 0.00 53 1012.8
20260501185842 10 353 9.7 11.3 0.00 0.00 0.00 53 1012.7
20260501185339 10 36 6.4 9.7 0.00 0.00 0.00 52 1012.8
20260501184835 10 19 4.8 4.8 0.00 0.00 0.00 52 1012.7
20260501184331 10 2 3.2 3.2 0.00 0.00 0.00 50 1012.9
20260501183826 10 358 1.6 1.6 0.00 0.00 0.00 51 1012.7
20260501183324 10 350 4.8 4.8 0.00 0.00 0.00 49 1012.8
20260501182820 10 296 1.6 3.2 0.00 0.00 0.00 51 1012.7
20260501182317 10 312 0.0 1.6 0.00 0.00 0.00 52 1012.8
20260501181814 10 296 3.2 4.8 0.00 0.00 0.00 54 1012.9
20260501181311 10 300 8.0 12.9 0.00 0.00 0.00 53 1012.8
20260501180809 9 324 4.8 4.8 0.00 0.00 0.00 53 1012.7
20260501180304 9 266 4.8 8.0 0.00 0.00 0.00 54 1012.8
20260501175802 9 305 4.8 4.8 0.00 0.00 0.00 53 1012.7
20260501175259 9 347 6.4 8.0 0.00 0.00 0.00 56 1012.6
20260501174755 9 298 3.2 3.2 0.00 0.00 0.00 55 1012.7
20260501174252 10 303 4.8 4.8 0.00 0.00 0.00 55 1012.7
20260501173750 10 297 1.6 1.6 0.00 0.00 0.00 55 1012.7
20260501173247 10 320 1.6 3.2 0.00 0.00 0.00 57 1012.8
20260501172743 10 2 4.8 4.8 0.00 0.00 0.00 56 1012.7
20260501172238 10 302 3.2 3.2 0.00 0.00 0.00 58 1012.8
20260501171734 9 327 4.8 4.8 0.00 0.00 0.00 56 1012.8
20260501171232 9 329 8.0 9.7 0.00 0.00 0.00 56 1012.7
20260501170728 9 28 4.8 9.7 0.00 0.00 0.00 59 1012.8
20260501170225 8 324 3.2 4.8 0.00 0.00 0.00 63 1012.6
20260501165723 8 299 6.4 9.7 0.00 0.00 0.00 64 1012.9
20260501165220 9 301 3.2 4.8 0.00 0.00 0.00 63 1012.8
20260501164718 9 318 1.6 1.6 0.00 0.00 0.00 63 1012.9
20260501164215 9 352 8.0 9.7 0.00 0.00 0.00 62 1012.7
20260501163710 9 327 3.2 3.2 0.00 0.00 0.00 65 1012.9
20260501163208 11 330 6.4 8.0 0.00 0.00 0.00 62 1012.9
20260501162704 10 27 3.2 3.2 0.00 0.00 0.00 66 1013.0
20260501162200 9 355 3.2 3.2 0.00 0.00 0.00 67 1013.2
20260501161658 8 22 1.6 3.2 0.00 0.00 0.00 68 1013.2
20260501161154 8 64 4.8 4.8 0.00 0.00 0.00 71 1013.2
20260501160651 8 304 0.0 1.6 0.00 0.00 0.00 72 1013.4
20260501160148 8 297 0.0 1.6 0.00 0.00 0.00 73 1013.5
20260501155645 8 92 3.2 3.2 0.00 0.00 0.00 73 1013.5
20260501155142 7 317 6.4 8.0 0.00 0.00 0.00 76 1013.4